Home > Time Zones > World Clock > Weather > Japan > Kyoto > Past weeks

Flag for Japan Weather past 2 weeks in Kyoto, Japan

Now
76 °F

Mild.


Feels Like: 78 °F
Forecast: 64 / 79 °F
Wind: 3 mph from South

Location: Osaka

Current Time: Oct 3, 2014 at 1:57:43 AM

Latest Report: Oct 3, 2014 at 1:00 AM


Visibility: N/A

Pressure: 29.78 "Hg

Humidity: 60%

Dew point: 61 °F

Location of KyotoLocation

Historic Weather in Kyoto — Graph

°F

Kyoto temperature yesterday

Maximum temperature yesterday: 82 °F (at 1:00 PM)
Minimum temperature yesterday: 69 °F (at 5:00 AM)
Average temperature yesterday: 76 °F

Past Weeks' High & Low Weather Summary

 TemperatureHumidityPressure
High85 °F (Sep 27, 1:00 PM)99% (Sep 25, 5:00 AM)30.16 "Hg (Sep 25, 5:00 AM)
Low63 °F (Sep 21, 5:00 AM)24% (Sep 21, 5:00 PM)29.66 "Hg (Sep 25, 4:00 AM)
Average74 °F61%29.94 "Hg
* Reported Midnight between Sep 17 and Sep 18 — Midnight between Oct 2 and Oct 3, Kyoto, Weather by CustomWeather, © 2014

Note: Actual official high and low records may vary slightly from our data, if they occured in-between our weather recording intervals... More about our weather records

Advertising

Kyoto weather history for previous 24 hours

 ConditionsComfort  
Time TempWeatherWind HumidityBarometerVisibility
12:00 AM
Oct 3
77 °FMild.2 mph61%29.79 "HgN/A
11:00 PM
Oct 2
78 °FWarm.3 mph60%29.80 "HgN/A
10:00 PM78 °FWarm.6 mph64%29.80 "HgN/A
9:00 PM78 °FOvercast.3 mph65%29.81 "Hg9 mi
8:00 PM78 °FWarm.6 mph70%29.81 "HgN/A
7:00 PM78 °FWarm.5 mph72%29.80 "HgN/A
6:00 PM79 °FOvercast.6 mph66%29.80 "Hg9 mi
5:00 PM79 °FWarm.3 mph64%29.79 "HgN/A
4:00 PM79 °FWarm.3 mph64%29.79 "HgN/A
3:00 PM78 °FOvercast.7 mph66%29.80 "Hg9 mi
2:00 PM80 °FWarm.10 mph56%29.80 "HgN/A
1:00 PM82 °FWarm.2 mph52%29.81 "HgN/A
12:00 PM81 °FOvercast.3 mph53%29.84 "Hg12 mi
11:00 AM80 °FWarm.3 mph60%29.88 "HgN/A
10:00 AM78 °FWarm.5 mph63%29.90 "HgN/A
9:00 AM74 °FOvercast.3 mph72%29.92 "Hg12 mi
8:00 AM73 °FMild.2 mph75%29.94 "HgN/A
7:00 AM71 °FMild.6 mph78%29.94 "HgN/A
6:00 AM70 °FOvercast.2 mph77%29.93 "Hg12 mi
5:00 AM69 °FMild.3 mph76%29.93 "HgN/A
4:00 AM70 °FMild.5 mph74%29.94 "HgN/A
3:00 AM70 °FPassing clouds.5 mph73%29.95 "Hg12 mi
2:00 AM71 °FMild.3 mph71%29.97 "HgN/A
1:00 AM71 °FMild.5 mph68%29.98 "HgN/A
Weather by CustomWeather, © 2014

See weather overviewHow to use our weather pages